Location: *
(50.2903°S, 172.5375°W)
Time: 04:45:43
(UTC+00:00)

USA 215 - Pass Details

Date: 17 November 2019
Orbit: 1101 x 1107 km, 123.0° (Epoch: 11 December)

Event Time Altitude Azimuth Distance (km) Brightness Sun altitude
Rises 12:07:57 0° 123° (ESE) 3,960 6.9 -19.8°
Reaches altitude 10° 12:10:36 10° 116° (ESE) 2,997 6.1 -19.7°
Maximum altitude 12:16:54 45° 45° (NE) 1,481 3.7 -19.4°
Enters shadow 12:19:39 30° 354° (N) 1,863 3.9 -19.3°
